Weather Roundup
Issued by NWS Springfield, MO

Home | Current Version | Previous Version | Text Only | Print | Product List | Glossary On
Versions: 1 2 3 4 5 6 7 8 9 10 11 12 13 14 15 16 17 18 19 20 21 22 23 24 25 26 27 28 29 30 31 32 33 34 35 36 37 38 39 40 41 42 43 44 45 46 47 48 49 50
000
NZUS99 KSGF 150407
HRRSGF

HOURLY WEATHER
NATIONAL WEATHER SERVICE SPRINGFIELD MO
1000 PM CST THU DEC 14 2017

......SGF CWA......

CITY           SKY/WX    TMP DP  RH WIND       PRES   REMARKS
SPRINGFIELD    CLOUDY    36  25  64 CALM      30.12S
JOPLIN         CLOUDY    34  30  85 S5        30.14F WCI  30
WEST PLAINS    CLOUDY    35  22  58 NW3       30.13S
ROLLA          CLOUDY    29  22  75 CALM      30.13R
OSAGE BEACH    CLOUDY    33  24  69 CALM      30.15R
BRANSON        MOCLDY    32  23  69 CALM      30.14S

......SURROUNDING SGF CWA......

CITY           SKY/WX    TMP DP  RH WIND       PRES   REMARKS
CHANUTE        CLOUDY    37  29  72 CALM      30.14R
PARSONS        CLOUDY    38  29  70 CALM      30.15S
COFFEYVILLE    CLOUDY    39  28  64 S5        30.15S
EMPORIA        CLOUDY    40  30  67 N10       30.14R WCI  33
GROVE OK       PTCLDY    30  27  86 CALM      30.16F
ROGERS AR      CLEAR     31  24  75 CALM      30.14F
SILOAM SPRINGS CLEAR     30  25  81 CALM      30.15S
HARRISON AR    CLEAR     34  24  67 CALM      30.13S
NEAR YELLVILLE CLOUDY    39  24  55 N3        30.15F

......KANSAS AND MISSOURI......

CITY           SKY/WX    TMP DP  RH WIND       PRES   REMARKS
KANSAS CTY INT CLOUDY    35  24  64 SE3       30.12S
DOWNTOWN KC    CLOUDY    39  24  55 NE3       30.13R
COLUMBIA       CLOUDY    29  23  78 S3        30.12S
SEDALIA        CLOUDY    32  28  85 S5        30.14S WCI  27
ST JOSEPH      CLOUDY    31  24  75 N3        30.14R
ST LOUIS       CLOUDY    30  20  66 NW9       30.14R WCI  22
SPIRIT OF STL  CLOUDY    31  22  69 W5        30.14S WCI  26
KIRKSVILLE     CLOUDY    30  28  92 CALM      30.11R
WICHITA        PTCLDY    41  33  73 N14       30.18R
TOPEKA         CLOUDY    39  33  79 NW8       30.15R WCI  33
OLATHE         CLOUDY    36  26  67 SW5       30.12R WCI  32

......TENNESSEE......

CITY           SKY/WX    TMP DP  RH WIND       PRES   REMARKS
MEMPHIS        PTCLDY    36  27  69 NE8       30.13R WCI  30
NASHVILLE      CLOUDY    34  21  59 NW7       30.10S WCI  28

......ARKANSAS.......

CITY           SKY/WX    TMP DP  RH WIND       PRES   REMARKS
FAYETTEVILLE   CLEAR     26  22  84 CALM      30.15S
FT SMITH       CLEAR     36  26  67 CALM      30.18R
LITTLE ROCK    PTCLDY    35  24  64 N7        30.18R WCI  29

......OKLAHOMA.......

CITY           SKY/WX    TMP DP  RH WIND       PRES   REMARKS
TULSA          CLOUDY    40  25  55 S6        30.17R
PONCA CITY     MOCLDY    44  30  57 NW8       30.16S
MCALESTER      CLEAR     30  24  78 CALM      30.18R
OKLAHOMA CITY  PTCLDY    36  26  67 CALM      30.18R

......IOWA............

CITY           SKY/WX    TMP DP  RH WIND       PRES   REMARKS
DES MOINES     CLOUDY    32  24  72 W7        30.08S WCI  26
QUAD CITIES    CLOUDY    26  17  68 SW7       30.06F WCI  18

......ILLINOIS........

CITY           SKY/WX    TMP DP  RH WIND       PRES   REMARKS
QUINCY         CLOUDY    28  19  69 W5        30.11S WCI  23
CHICAGO        MOCLDY    20  11  68 SW3       30.05F




USA.gov is the U.S. government's official web portal to all federal, state and local government web resources and services.